EW9798 Weather Reports


Display with metric or nautical units.
time (UTC)temp
F
wind
direction
speed
MPH
gust
MPH
rain 1hr
in
rain 24hr
in
rain mn
in
humidity
%
barometer
mb
20260901084530 52 112 1.0 3.0 0.00 0.00 0.00 83 1010.4
20260901083029 52 112 1.0 3.0 0.00 0.00 0.00 82 1010.6
20260901081636 53 112 1.0 3.0 0.00 0.00 0.00 79 1010.6
20260901080029 54 315 0.0 4.0 0.00 0.00 0.00 77 1010.5
20260901074530 55 100 2.0 4.0 0.00 0.00 0.00 77 1010.3
20260901070032 54 121 2.0 4.0 0.00 0.00 0.00 78 1010.1
20260901063030 55 112 3.0 5.0 0.00 0.00 0.00 76 1010.3
20260901061608 56 113 1.0 5.0 0.00 0.00 0.00 74 1010.3
20260901060031 56 135 2.0 4.0 0.00 0.00 0.00 73 1010.2
20260901054531 56 135 3.0 5.0 0.00 0.00 0.00 71 1010.2
20260901053031 56 124 2.0 4.0 0.00 0.00 0.00 69 1010.3
20260901051531 57 112 2.0 4.0 0.00 0.00 0.00 64 1010.2
20260901050107 59 129 2.0 4.0 0.00 0.00 0.00 61 1010.2
20260901044530 60 141 3.0 5.0 0.00 0.00 0.00 59 1010.1
20260901043029 60 114 3.0 5.0 0.00 0.00 0.00 59 1010.0
20260901041531 60 143 3.0 5.0 0.00 0.00 0.00 61 1009.9
20260901040031 60 132 3.0 6.0 0.00 0.00 0.00 63 1009.7
20260901034530 61 103 3.0 4.0 0.00 0.00 0.00 62 1009.4
20260901033033 62 87 1.0 4.0 0.00 0.00 0.00 63 1009.2
20260901031531 64 112 3.0 5.0 0.00 0.00 0.00 58 1009.0
20260901030029 65 134 1.0 5.0 0.00 0.00 0.00 56 1008.9
20260901024532 68 125 3.0 5.0 0.00 0.00 0.00 49 1008.6
20260901023032 68 138 5.0 7.0 0.00 0.00 0.00 51 1008.6
20260901021530 68 131 4.0 7.0 0.00 0.00 0.00 52 1008.6
20260901014530 75 134 3.0 5.0 0.00 0.00 0.00 51 1008.5
20260901013031 78 226 0.0 3.0 0.00 0.00 0.00 45 1008.5
20260901011530 80 248 0.0 4.0 0.00 0.00 0.00 41 1008.5
20260901010145 81 104 1.0 5.0 0.00 0.00 0.00 39 1008.6
20260901004532 82 141 2.0 5.0 0.00 0.00 0.00 33 1008.7
20260901003033 81 86 4.0 8.0 0.00 0.00 0.00 30 1008.9
20260901001529 82 60 3.0 7.0 0.00 0.00 0.00 32 1009.0
20260901000029 81 130 4.0 11.0 0.00 0.00 0.00 30 1009.2
20260831234530 82 90 4.0 11.0 0.00 0.00 0.00 30 1009.3
20260831233028 82 111 4.0 11.0 0.00 0.00 0.00 29 1009.5
20260831231530 82 68 3.0 12.0 0.00 0.00 0.00 29 1009.7
20260831230032 82 52 6.0 13.0 0.00 0.00 0.00 29 1009.8
20260831223030 82 72 5.0 13.0 0.00 0.00 0.00 30 1010.3
20260831221530 81 38 3.0 12.0 0.00 0.00 0.00 31 1010.5
20260831220030 81 81 4.0 17.0 0.00 0.00 0.00 30 1010.7
20260831214605 81 121 6.0 14.0 0.00 0.00 0.00 32 1011.0
20260831213033 80 95 5.0 14.0 0.00 0.00 0.00 35 1011.2
20260831211607 79 46 7.0 16.0 0.00 0.00 0.00 36 1011.5
20260831210029 79 74 5.0 14.0 0.00 0.00 0.00 36 1011.7
20260831204529 79 58 5.0 14.0 0.00 0.00 0.00 36 1011.8
20260831203031 79 52 3.0 15.0 0.00 0.00 0.00 37 1012.0
20260831201531 78 95 5.0 15.0 0.00 0.00 0.00 37 1012.4
20260831200030 77 48 5.0 14.0 0.00 0.00 0.00 37 1012.8
20260831194531 77 5 4.0 15.0 0.00 0.00 0.00 38 1013.0
20260831193030 77 54 5.0 15.0 0.00 0.00 0.00 39 1013.2
20260831191605 76 115 4.0 14.0 0.00 0.00 0.00 41 1013.7
20260831190029 74 78 3.0 11.0 0.00 0.00 0.00 42 1013.9
20260831184531 73 337 3.0 11.0 0.00 0.00 0.00 48 1014.1
20260831183032 69 340 4.0 12.0 0.00 0.00 0.00 62 1014.7
20260831180030 67 269 2.0 8.0 0.00 0.00 0.00 66 1015.1
20260831174531 65 265 2.0 5.0 0.00 0.00 0.00 69 1015.2
20260831173030 63 255 1.0 3.0 0.00 0.00 0.00 71 1015.4
20260831171532 61 26 1.0 4.0 0.00 0.00 0.00 74 1015.6
20260831170031 60 336 1.0 5.0 0.00 0.00 0.00 77 1015.7
20260831161607 54 232 0.0 3.0 0.00 0.00 0.00 96 1016.3
20260831160106 53 142 0.0 0.0 0.00 0.00 0.00 97 1016.5
20260831154531 52 135 0.0 0.0 0.00 0.00 0.00 97 1016.5
20260831153029 51 135 0.0 0.0 0.00 0.00 0.00 97 1016.5
20260831151531 49 135 0.0 0.0 0.00 0.00 0.00 96 1016.6
20260831150029 47 135 0.0 3.0 0.00 0.00 0.00 96 1016.5
20260831144529 45 135 2.0 3.0 0.00 0.00 0.00 96 1016.3
20260831143031 45 135 0.0 2.0 0.00 0.00 0.00 95 1016.4
20260831141532 44 135 1.0 2.0 0.00 0.00 0.00 95 1016.3
20260831140033 44 135 0.0 3.0 0.00 0.00 0.00 95 1016.2
20260831134531 44 135 0.0 2.0 0.00 0.00 0.00 95 1016.1
20260831133034 44 135 2.0 3.0 0.00 0.00 0.00 95 1016.1
20260831131607 44 135 0.0 1.0 0.00 0.00 0.00 95 1016.1
20260831130106 45 135 0.0 2.0 0.00 0.00 0.00 94 1016.2
20260831124530 45 135 2.0 3.0 0.00 0.00 0.00 94 1016.1
20260831121606 46 135 0.0 3.0 0.00 0.00 0.00 94 1016.0
20260831114532 46 135 1.0 3.0 0.00 0.00 0.00 93 1016.2
20260831113029 46 135 1.0 4.0 0.00 0.00 0.00 93 1016.2
20260831111530 46 135 1.0 3.0 0.00 0.00 0.00 93 1016.2
20260831110030 46 135 2.0 3.0 0.00 0.00 0.00 92 1016.2
20260831104530 47 135 0.0 1.0 0.00 0.00 0.00 92 1016.2
20260831101609 48 135 0.0 3.0 0.00 0.00 0.00 91 1016.2
20260831100028 48 125 1.0 3.0 0.00 0.00 0.00 91 1016.3
20260831094532 48 101 3.0 4.0 0.00 0.00 0.00 90 1016.5
20260831093030 48 107 1.0 3.0 0.00 0.00 0.00 90 1016.6
20260831091532 49 112 1.0 3.0 0.00 0.00 0.00 89 1016.6
20260831090104 49 112 0.0 2.0 0.00 0.00 0.00 89 1016.6